CE-SAT IIB (46818 NORAD) Tracking and Keplerian Element Data

This shows tracking and keplerian element data for the satellite.

Feedback or suggestion? Click here.




ElementValue
Catalog46818
NameCE-SAT IIB
Epoch Orbit383
Epoch Day328.20190366
Epoch Year2020
RAAN28.3789
Inclination97.4968
Eccentricity0.00132
Argument of Perigee213.5132
Mean Anonmoly235.1625
Mean Motion15.16764997
Decay Rate4.25E-06
L11 46818U 20077F 20328.20190366 .00000425 00000-0 25046-4 0 9997
L22 46818 97.4968 28.3789 0013200 213.5132 235.1625 15.16764997 3835

Live tracking and technical data element details for CE-SAT IIB (NORAD 46818). CE-SAT IIB can be tracked NOW for your location showing map with azimuth and elevation plus other details from your city location.

Track the satellite on the map from your city or location and see movement details for azimuth, elevation, latitude, longitude, range, height, and movement on the map or in text.







IsCatalogInMostPopularTable: catalog: 46818, numindb: 7
Update: records affected: 1



GetName: 46818 CE-SAT IIB

Hit Count: updated at: Tue, 24 Nov 2020 12:27:46 GMT